Time,TemperatureF,DewpointF,PressureIn,WindDirection,WindDirectionDegrees,WindSpeedMPH,WindSpeedGustMPH,Humidity,HourlyPrecipIn,Conditions,Clouds,dailyrainin,SoftwareType,DateUTC
2013-08-10 00:02:00,81.0,77.0,30.07,SW,215,10.0,13.0,89,0.00,,,0.00,,2013-08-10 04:02:00,
2013-08-10 00:12:00,81.0,77.0,30.07,SW,215,10.0,13.0,89,0.00,,,0.00,,2013-08-10 04:12:00,
2013-08-10 00:22:00,81.0,78.0,30.08,SW,232,11.0,14.0,90,0.00,,,0.00,,2013-08-10 04:22:00,
2013-08-10 00:32:00,81.0,78.0,30.08,SW,232,11.0,14.0,90,0.00,,,0.00,,2013-08-10 04:32:00,
2013-08-10 00:43:00,81.0,78.0,30.08,WSW,238,10.0,14.0,91,0.00,,,0.00,,2013-08-10 04:43:00,
2013-08-10 00:53:00,81.0,78.0,30.08,SW,232,9.0,11.0,91,0.00,,,0.00,,2013-08-10 04:53:00,
2013-08-10 01:02:00,81.0,78.0,30.08,SW,232,9.0,11.0,91,0.00,,,0.00,,2013-08-10 05:02:00,
2013-08-10 01:11:00,81.0,78.0,30.08,SW,236,7.0,11.0,90,0.00,,,0.00,,2013-08-10 05:11:00,
2013-08-10 01:32:00,81.0,78.0,30.08,WSW,238,7.0,12.0,91,0.00,,,0.00,,2013-08-10 05:32:00,
2013-08-10 01:43:00,81.0,78.0,30.08,WSW,238,10.0,12.0,92,0.00,,,0.00,,2013-08-10 05:43:00,
2013-08-10 01:52:00,81.0,78.0,30.07,SSW,207,9.0,12.0,92,0.00,,,0.00,,2013-08-10 05:52:00,
2013-08-10 02:02:00,81.0,78.0,30.07,SSW,207,9.0,12.0,92,0.00,,,0.00,,2013-08-10 06:02:00,
2013-08-10 02:32:00,80.0,77.0,30.08,SW,233,3.0,8.0,92,0.00,,,0.00,,2013-08-10 06:32:00,
2013-08-10 02:44:00,80.0,77.0,30.09,SW,231,2.0,10.0,91,0.00,,,0.00,,2013-08-10 06:44:00,
2013-08-10 02:53:00,80.0,77.0,30.08,SW,225,4.0,8.0,91,0.00,,,0.00,,2013-08-10 06:53:00,
2013-08-10 03:02:00,80.0,77.0,30.08,SW,225,4.0,8.0,91,0.00,,,0.00,,2013-08-10 07:02:00,
2013-08-10 03:13:00,80.0,77.0,30.08,WSW,241,3.0,7.0,92,0.00,,,0.00,,2013-08-10 07:13:00,
2013-08-10 03:22:00,80.0,77.0,30.08,WSW,241,3.0,7.0,92,0.00,,,0.00,,2013-08-10 07:22:00,
2013-08-10 03:33:00,80.0,77.0,30.08,SW,226,3.0,6.0,92,0.00,,,0.00,,2013-08-10 07:33:00,
2013-08-10 03:43:00,80.0,77.0,30.08,WSW,250,3.0,8.0,92,0.00,,,0.00,,2013-08-10 07:43:00,
2013-08-10 03:52:00,79.0,76.0,30.08,SW,232,2.0,6.0,92,0.00,,,0.00,,2013-08-10 07:52:00,
2013-08-10 04:02:00,79.0,76.0,30.08,SW,232,2.0,6.0,92,0.00,,,0.00,,2013-08-10 08:02:00,
2013-08-10 04:12:00,79.0,76.0,30.08,West,274,0.0,5.0,92,0.00,,,0.00,,2013-08-10 08:12:00,
2013-08-10 04:22:00,79.0,76.0,30.08,West,274,0.0,5.0,92,0.00,,,0.00,,2013-08-10 08:22:00,
2013-08-10 04:32:00,79.0,76.0,30.08,WSW,238,2.0,6.0,92,0.00,,,0.00,,2013-08-10 08:32:00,
2013-08-10 04:43:00,79.0,76.0,30.08,West,263,2.0,6.0,92,0.00,,,0.00,,2013-08-10 08:43:00,
2013-08-10 04:53:00,79.0,76.0,30.08,WSW,250,2.0,5.0,92,0.00,,,0.00,,2013-08-10 08:53:00,
2013-08-10 05:02:00,79.0,76.0,30.08,WSW,250,2.0,5.0,92,0.00,,,0.00,,2013-08-10 09:02:00,
2013-08-10 05:12:00,79.0,77.0,30.08,West,270,0.0,4.0,93,0.00,,,0.00,,2013-08-10 09:12:00,
2013-08-10 05:32:00,78.0,76.0,30.08,West,276,0.0,2.0,93,0.00,,,0.00,,2013-08-10 09:32:00,
2013-08-10 05:43:00,78.0,76.0,30.08,West,274,3.0,5.0,93,0.00,,,0.00,,2013-08-10 09:43:00,
2013-08-10 06:02:00,79.0,77.0,30.09,WSW,238,2.0,5.0,93,0.00,,,0.00,,2013-08-10 10:02:00,
2013-08-10 06:11:00,79.0,77.0,30.09,WSW,255,2.0,6.0,94,0.00,,,0.00,,2013-08-10 10:11:00,
2013-08-10 06:33:00,79.0,77.0,30.09,SW,224,6.0,9.0,94,0.00,,,0.00,,2013-08-10 10:33:00,
2013-08-10 06:44:00,79.0,77.0,30.09,SW,221,3.0,8.0,94,0.00,,,0.00,,2013-08-10 10:44:00,
2013-08-10 06:52:00,79.0,77.0,30.09,SW,221,3.0,8.0,94,0.00,,,0.00,,2013-08-10 10:52:00,
2013-08-10 07:02:00,78.0,76.0,30.09,West,270,1.0,6.0,94,0.00,,,0.00,,2013-08-10 11:02:00,
2013-08-10 07:11:00,78.0,76.0,30.09,SW,228,1.0,6.0,94,0.00,,,0.00,,2013-08-10 11:11:00,
2013-08-10 07:33:00,78.0,76.0,30.10,SSW,203,2.0,8.0,95,0.00,,,0.00,,2013-08-10 11:33:00,
2013-08-10 07:43:00,79.0,77.0,30.10,WSW,245,4.0,8.0,94,0.00,,,0.00,,2013-08-10 11:43:00,
2013-08-10 08:01:00,79.0,77.0,30.10,WSW,242,5.0,9.0,94,0.00,,,0.00,,2013-08-10 12:01:00,
2013-08-10 08:11:00,79.0,77.0,30.10,SW,224,2.0,8.0,93,0.00,,,0.00,,2013-08-10 12:11:00,
2013-08-10 08:32:00,80.0,77.0,30.10,WSW,237,5.0,8.0,92,0.00,,,0.00,,2013-08-10 12:32:00,
2013-08-10 08:42:00,81.0,78.0,30.10,SW,236,4.0,7.0,91,0.00,,,0.00,,2013-08-10 12:42:00,
2013-08-10 08:52:00,81.0,78.0,30.10,SW,236,4.0,7.0,91,0.00,,,0.00,,2013-08-10 12:52:00,
2013-08-10 09:01:00,82.0,78.0,30.10,SSW,207,2.0,6.0,88,0.00,,,0.00,,2013-08-10 13:01:00,
2013-08-10 09:22:00,82.0,77.0,30.10,SW,236,3.0,5.0,85,0.00,,,0.00,,2013-08-10 13:22:00,
2013-08-10 09:32:00,83.0,77.0,30.10,South,186,2.0,7.0,83,0.00,,,0.00,,2013-08-10 13:32:00,
2013-08-10 09:43:00,84.0,77.0,30.10,West,266,2.0,7.0,80,0.00,,,0.00,,2013-08-10 13:43:00,
2013-08-10 09:52:00,84.0,77.0,30.10,West,266,2.0,7.0,80,0.00,,,0.00,,2013-08-10 13:52:00,
2013-08-10 10:02:00,85.0,78.0,30.09,WNW,283,3.0,7.0,79,0.00,,,0.00,,2013-08-10 14:02:00,
2013-08-10 10:33:00,85.0,77.0,30.09,WSW,241,5.0,11.0,78,0.00,,,0.00,,2013-08-10 14:33:00,
2013-08-10 10:43:00,85.0,77.0,30.10,SW,224,3.0,9.0,78,0.00,,,0.00,,2013-08-10 14:43:00,
2013-08-10 10:53:00,87.0,78.0,30.10,SW,231,4.0,11.0,75,0.00,,,0.00,,2013-08-10 14:53:00,
2013-08-10 11:02:00,87.0,78.0,30.10,SW,231,4.0,11.0,75,0.00,,,0.00,,2013-08-10 15:02:00,
2013-08-10 11:12:00,86.0,77.0,30.10,SW,229,6.0,9.0,74,0.00,,,0.00,,2013-08-10 15:12:00,
2013-08-10 11:34:00,87.0,78.0,30.10,SSW,207,3.0,9.0,76,0.00,,,0.00,,2013-08-10 15:34:00,
2013-08-10 11:43:00,86.0,78.0,30.10,SW,226,7.0,9.0,77,0.00,,,0.00,,2013-08-10 15:43:00,
2013-08-10 11:52:00,86.0,78.0,30.09,SW,236,5.0,8.0,78,0.00,,,0.00,,2013-08-10 15:52:00,
2013-08-10 12:02:00,86.0,78.0,30.09,SW,236,5.0,8.0,78,0.00,,,0.00,,2013-08-10 16:02:00,
2013-08-10 12:12:00,87.0,78.0,30.09,SSW,211,4.0,8.0,76,0.00,,,0.00,,2013-08-10 16:12:00,
2013-08-10 12:22:00,88.0,79.0,30.09,SW,219,4.0,9.0,74,0.00,,,0.00,,2013-08-10 16:22:00,
2013-08-10 12:32:00,88.0,79.0,30.09,SW,219,4.0,9.0,74,0.00,,,0.00,,2013-08-10 16:32:00,
2013-08-10 12:43:00,89.0,79.0,30.09,SW,233,5.0,9.0,73,0.00,,,0.00,,2013-08-10 16:43:00,
2013-08-10 12:53:00,88.0,78.0,30.09,SW,231,4.0,10.0,72,0.00,,,0.00,,2013-08-10 16:53:00,
2013-08-10 13:02:00,88.0,78.0,30.09,SW,231,4.0,10.0,72,0.00,,,0.00,,2013-08-10 17:02:00,
2013-08-10 13:12:00,88.0,79.0,30.08,SSW,207,4.0,8.0,74,0.00,,,0.00,,2013-08-10 17:12:00,
2013-08-10 13:22:00,88.0,80.0,30.08,SW,221,4.0,11.0,77,0.00,,,0.00,,2013-08-10 17:22:00,
2013-08-10 13:33:00,88.0,80.0,30.08,SW,221,4.0,11.0,77,0.00,,,0.00,,2013-08-10 17:33:00,
2013-08-10 13:43:00,88.0,79.0,30.08,SSW,207,3.0,8.0,75,0.00,,,0.00,,2013-08-10 17:43:00,
2013-08-10 13:52:00,88.0,79.0,30.07,WSW,239,6.0,10.0,76,0.00,,,0.00,,2013-08-10 17:52:00,
2013-08-10 14:01:00,88.0,79.0,30.07,WSW,239,6.0,10.0,76,0.00,,,0.00,,2013-08-10 18:01:00,
2013-08-10 14:11:00,89.0,79.0,30.07,SW,222,3.0,8.0,73,0.00,,,0.00,,2013-08-10 18:11:00,
2013-08-10 14:23:00,89.0,78.0,30.06,SW,221,4.0,10.0,70,0.00,,,0.00,,2013-08-10 18:23:00,
2013-08-10 14:32:00,89.0,78.0,30.06,SW,221,4.0,10.0,70,0.00,,,0.00,,2013-08-10 18:32:00,
2013-08-10 14:44:00,89.0,80.0,30.06,SSW,193,6.0,12.0,74,0.00,,,0.00,,2013-08-10 18:44:00,
2013-08-10 14:52:00,88.0,80.0,30.06,South,189,8.0,11.0,78,0.00,,,0.00,,2013-08-10 18:52:00,
2013-08-10 15:02:00,88.0,80.0,30.06,South,189,8.0,11.0,78,0.00,,,0.00,,2013-08-10 19:02:00,
2013-08-10 15:12:00,88.0,81.0,30.05,SSW,200,9.0,12.0,81,0.00,,,0.00,,2013-08-10 19:12:00,
2013-08-10 15:22:00,88.0,81.0,30.05,SSW,207,9.0,12.0,80,0.00,,,0.00,,2013-08-10 19:22:00,
2013-08-10 15:33:00,88.0,81.0,30.05,SSW,207,9.0,12.0,80,0.00,,,0.00,,2013-08-10 19:33:00,
2013-08-10 15:44:00,87.0,80.0,30.04,SW,217,11.0,14.0,80,0.00,,,0.00,,2013-08-10 19:44:00,
2013-08-10 15:53:00,87.0,80.0,30.04,SSW,194,11.0,16.0,81,0.00,,,0.00,,2013-08-10 19:53:00,
2013-08-10 16:02:00,87.0,80.0,30.04,SSW,194,11.0,16.0,81,0.00,,,0.00,,2013-08-10 20:02:00,
2013-08-10 16:12:00,87.0,80.0,30.03,SSW,204,12.0,16.0,81,0.00,,,0.00,,2013-08-10 20:12:00,
2013-08-10 16:22:00,87.0,80.0,30.03,SSW,204,12.0,16.0,81,0.00,,,0.00,,2013-08-10 20:22:00,
2013-08-10 16:33:00,87.0,80.0,30.03,SSW,204,12.0,17.0,81,0.00,,,0.00,,2013-08-10 20:33:00,
2013-08-10 16:43:00,87.0,80.0,30.03,South,186,12.0,17.0,81,0.00,,,0.00,,2013-08-10 20:43:00,
2013-08-10 16:53:00,87.0,80.0,30.03,SSW,194,12.0,16.0,80,0.00,,,0.00,,2013-08-10 20:53:00,
2013-08-10 17:02:00,87.0,80.0,30.03,SSW,194,12.0,16.0,80,0.00,,,0.00,,2013-08-10 21:02:00,
2013-08-10 17:12:00,86.0,79.0,30.03,SSW,207,13.0,17.0,80,0.00,,,0.00,,2013-08-10 21:12:00,
2013-08-10 17:22:00,86.0,79.0,30.03,SSW,212,12.0,18.0,81,0.00,,,0.00,,2013-08-10 21:22:00,
2013-08-10 17:32:00,86.0,79.0,30.03,SSW,212,12.0,18.0,81,0.00,,,0.00,,2013-08-10 21:32:00,
2013-08-10 17:42:00,86.0,79.0,30.03,SSW,208,13.0,18.0,79,0.00,,,0.00,,2013-08-10 21:42:00,
2013-08-10 17:52:00,86.0,78.0,30.03,SSW,197,12.0,18.0,78,0.00,,,0.00,,2013-08-10 21:52:00,
2013-08-10 18:02:00,86.0,78.0,30.03,SSW,197,12.0,18.0,78,0.00,,,0.00,,2013-08-10 22:02:00,
2013-08-10 18:11:00,86.0,78.0,30.02,SSW,197,13.0,18.0,78,0.00,,,0.00,,2013-08-10 22:11:00,
2013-08-10 18:21:00,86.0,79.0,30.02,SW,215,12.0,19.0,79,0.00,,,0.00,,2013-08-10 22:21:00,
2013-08-10 18:32:00,86.0,79.0,30.02,SW,215,12.0,19.0,79,0.00,,,0.00,,2013-08-10 22:32:00,
2013-08-10 18:43:00,86.0,79.0,30.02,SW,218,11.0,17.0,79,0.00,,,0.00,,2013-08-10 22:43:00,
2013-08-10 18:52:00,85.0,78.0,30.02,SW,221,11.0,16.0,80,0.00,,,0.00,,2013-08-10 22:52:00,
2013-08-10 19:02:00,85.0,78.0,30.02,SW,221,11.0,16.0,80,0.00,,,0.00,,2013-08-10 23:02:00,
2013-08-10 19:12:00,85.0,77.0,30.04,SSW,211,12.0,16.0,78,0.00,,,0.00,,2013-08-10 23:12:00,
2013-08-10 19:22:00,85.0,78.0,30.03,SSW,195,9.0,16.0,79,0.00,,,0.00,,2013-08-10 23:22:00,
2013-08-10 19:32:00,85.0,78.0,30.03,SSW,195,9.0,16.0,79,0.00,,,0.00,,2013-08-10 23:32:00,
2013-08-10 19:43:00,85.0,78.0,30.03,SW,231,11.0,17.0,80,0.00,,,0.00,,2013-08-10 23:43:00,
2013-08-10 19:53:00,84.0,78.0,30.03,SSW,203,9.0,13.0,83,0.00,,,0.00,,2013-08-10 23:53:00,
2013-08-10 20:02:00,84.0,78.0,30.03,SSW,203,9.0,13.0,83,0.00,,,0.00,,2013-08-11 00:02:00,
2013-08-10 20:11:00,84.0,79.0,30.04,SW,232,9.0,15.0,84,0.00,,,0.00,,2013-08-11 00:11:00,
2013-08-10 20:22:00,84.0,79.0,30.06,SW,228,10.0,14.0,86,0.00,,,0.00,,2013-08-11 00:22:00,
2013-08-10 20:32:00,84.0,79.0,30.06,SW,228,10.0,14.0,86,0.00,,,0.00,,2013-08-11 00:32:00,
2013-08-10 20:42:00,84.0,80.0,30.06,SW,214,10.0,15.0,87,0.00,,,0.00,,2013-08-11 00:42:00,
2013-08-10 20:52:00,83.0,79.0,30.07,WSW,238,9.0,12.0,87,0.00,,,0.00,,2013-08-11 00:52:00,
2013-08-10 21:02:00,83.0,79.0,30.07,WSW,238,9.0,12.0,87,0.00,,,0.00,,2013-08-11 01:02:00,
2013-08-10 21:12:00,83.0,79.0,30.08,SW,218,7.0,12.0,89,0.00,,,0.00,,2013-08-11 01:12:00,
2013-08-10 21:22:00,83.0,79.0,30.09,SW,226,7.0,11.0,89,0.00,,,0.00,,2013-08-11 01:22:00,
2013-08-10 21:32:00,83.0,79.0,30.09,SW,226,7.0,11.0,89,0.00,,,0.00,,2013-08-11 01:32:00,
2013-08-10 21:43:00,81.0,76.0,30.12,West,278,2.0,6.0,84,0.00,,,0.00,,2013-08-11 01:43:00,
2013-08-10 21:53:00,77.0,72.0,30.14,WNW,283,0.0,3.0,86,0.02,,,0.02,,2013-08-11 01:53:00,
2013-08-10 22:02:00,77.0,72.0,30.14,WNW,283,0.0,3.0,86,0.02,,,0.02,,2013-08-11 02:02:00,
2013-08-10 22:12:00,75.0,72.0,30.13,North,11,0.0,2.0,90,0.09,,,0.09,,2013-08-11 02:12:00,
2013-08-10 22:22:00,74.0,72.0,30.12,NW,325,0.0,1.0,92,0.12,,,0.12,,2013-08-11 02:22:00,
2013-08-10 22:32:00,74.0,72.0,30.12,NW,325,0.0,1.0,92,0.12,,,0.12,,2013-08-11 02:32:00,
2013-08-10 22:43:00,74.0,72.0,30.12,WSW,252,0.0,1.0,93,0.12,,,0.12,,2013-08-11 02:43:00,
2013-08-10 22:56:00,74.0,72.0,30.13,North,354,0.0,1.0,94,0.10,,,0.12,,2013-08-11 02:56:00,
2013-08-10 23:07:00,74.0,72.0,30.13,North,354,0.0,1.0,94,0.10,,,0.12,,2013-08-11 03:07:00,
2013-08-10 23:18:00,74.0,72.0,30.13,North,354,0.0,0.0,94,0.03,,,0.13,,2013-08-11 03:18:00,
2013-08-10 23:28:00,74.0,72.0,30.12,North,353,0.0,0.0,94,0.01,,,0.13,,2013-08-11 03:28:00,
2013-08-10 23:36:00,74.0,72.0,30.12,North,353,0.0,0.0,94,0.01,,,0.13,,2013-08-11 03:36:00,
2013-08-10 23:44:00,74.0,72.0,30.11,NW,320,0.0,0.0,95,0.01,,,0.13,,2013-08-11 03:44:00,
2013-08-10 23:54:00,75.0,74.0,30.10,SW,229,2.0,4.0,97,0.01,,,0.13,,2013-08-11 03:54:00,